Regional Weather Roundup
Issued by NWS

Home | Current Version | Previous Version | Text Only | Print | Product List | Glossary On
Versions: 1 2 3 4 5 6 7 8 9 10 11 12 13 14 15 16 17 18 19 20 21 22 23 24 25 26 27
000
ASUS44 KBMX 232010
RWRAL

ALABAMA REGIONAL WEATHER ROUNDUP
NATIONAL WEATHER SERVICE BIRMINGHAM AL
300 PM CDT WED APR 23 2014

NOTE: "FAIR" INDICATES FEW OR NO CLOUDS BELOW 12,000 FEET
WITH NO SIGNIFICANT WEATHER AND/OR OBSTRUCTIONS TO VISIBILITY.

THE REMARK "TC" DENOTES TEMPERATURE IN DEGREES CELSIUS.

ALZ001>011-014-016>018-020-232100-
NORTH ALABAMA

CITY           SKY/WX    TMP DP  RH WIND       PRES   REMARKS
MUSCLE SHOALS  SUNNY     74  37  26 E6        29.99F
HUNTSVILLE     SUNNY     73  36  25 N6        29.97F
DECATUR        SUNNY     73  36  25 N10       29.98F
HALEYVILLE     FAIR      73  38  28 N9        30.00F
GADSDEN        SUNNY     73  39  29 NE3       29.94F
$$

ALZ012-013-022-023-030>036-040>044-232100-
WEST CENTRAL ALABAMA

CITY           SKY/WX    TMP DP  RH WIND       PRES   REMARKS
TUSCALOOSA     SUNNY     77  38  24 CALM      29.95F
$$

ALZ015-024>027-033>036-040>044-232100-
CENTRAL ALABAMA

CITY           SKY/WX    TMP DP  RH WIND       PRES   REMARKS
BIRMINGHAM     SUNNY     77  37  23 CALM      29.97F
MONTGOMERY     MOSUNNY   83  52  34 NW9       29.91F
SHELBY CO ARPT SUNNY     78  36  21 VRB6      29.94F
MAXWELL AFB    SUNNY     83  55  38 VRB3      29.91F HAZE
GREENVILLE     FAIR      82  55  39 N5        29.91F
$$

ALZ019-021-028-029-037-038-045>048-232100-
EAST CENTRAL ALABAMA

CITY           SKY/WX    TMP DP  RH WIND       PRES   REMARKS
ANNISTON       SUNNY     76  40  27 CALM      29.94F
ALEXANDER CITY SUNNY     81  20  10 NE5       29.93F
AUBURN         SUNNY     79  45  29 N10       29.95F
$$

ALZ051>064-232100-
SOUTHWEST ALABAMA

CITY           SKY/WX    TMP DP  RH WIND       PRES   REMARKS
MOBILE         MOSUNNY   82  60  47 CALM      29.92F
BROOKLEY FIELD MOSUNNY   81  64  56 SE9       29.93F
EVERGREEN      MOSUNNY   85  56  37 NE8       29.93F
$$

ALZ049-050-065>069-232100-
SOUTHEAST ALABAMA

CITY           SKY/WX    TMP DP  RH WIND       PRES   REMARKS
DOTHAN         SUNNY     81  56  42 W6        29.93F
OZARK          MOSUNNY   80  58  46 NW6       29.90F
TROY           SUNNY     81  55  40 W6        29.92F
EUFAULA        PTSUNNY   81  55  40 CALM      29.89F
$$



USA.gov is the U.S. government's official web portal to all federal, state and local government web resources and services.